Current weather by "City, St" or "zip code"  
 
Advertise Here

Current Conditions: Lancaster, Fairfield County Airport, OH

Fair


58.0 F

Last Updated on May 12 2021, 11:53 am EDT
Humidity: 48%
Wind Speed: NE 15.0 G 21.9 mph
Barometer 30.38 in
Dewpoint: 37.9 F
Visibility: 10.00 mi
Precip: --
Heat Index: NA
Wind Chill: 55 F
Current conditions at:

Lancaster, Fairfield County Airport, OH (KLHQ)

Lat: 39.75722 Lon: 82.66333

Local Radar Image active severe weather and emergency alerts image image weather storm and storm spotter reports image weather observation monitoring service image
Local
Radar
Active
Alerts
Storm Reports Obs
Monitoring

Sign-up For Email & Text Message Weather Alert Notification Services


Advertise Here

Observation History for Lancaster, Fairfield County Airport, OH


Time Wind
(mph)
Vis
(mi)
Weather Precip (in) Temperature (F) Relative
Humidity
Wind
Chill
(F)
Heat
Index
(F)
Pressure
Air Dwpt altimeter
(in)
sea level
(mb)
Rmks
11:53 am EDT NE 15.0 G 21.9 10.00 Fair -- 58.0 37.9 48% 55 NA 30.38 1028.9
10:53 am EDT N 13.8 10.00 Fair -- 56.0 37.9 51% 53 NA 30.39 1029.3
9:53 am EDT N 10.4 10.00 Fair -- 54.0 37.0 53% 51 NA 30.40 1029.5
8:53 am EDT N 4.6 10.00 Fair -- 49.0 37.9 66% 47 NA 30.39 1029.4
7:53 am EDT N 0.0 10.00 Fair -- 40.0 37.9 93% NA NA 30.39 1029.3
6:53 am EDT N 0.0 10.00 Fair -- 34.0 33.1 97% NA NA 30.38 1029.1
5:53 am EDT N 0.0 10.00 Fair -- 33.0 30.9 92% NA NA 30.35 1028.0
4:53 am EDT N 0.0 10.00 Fair -- 34.0 32.0 92% NA NA 30.33 1027.4
3:53 am EDT N 0.0 10.00 Fair -- 36.0 33.1 89% NA NA 30.33 1027.3
2:53 am EDT N 0.0 10.00 Fair -- 36.0 34.0 93% NA NA 30.32 1027.1
1:53 am EDT N 0.0 10.00 Fair -- 37.0 34.0 89% NA NA 30.33 1027.5
12:53 am EDT N 0.0 10.00 Fair -- 37.0 35.1 93% NA NA 30.34 1027.7
11:53 pm EDT N 0.0 10.00 Fair -- 38.0 36.0 93% NA NA 30.34 1027.7
10:53 pm EDT N 0.0 10.00 Fair -- 40.0 36.0 86% NA NA 30.34 1027.6
9:53 pm EDT N 0.0 10.00 Fair -- 43.0 34.0 71% NA NA 30.32 1027.0
8:53 pm EDT NW 4.6 10.00 Fair -- 48.0 30.0 50% 46 NA 30.29 1026.0
7:53 pm EDT N 8.1 10.00 Fair -- 51.0 30.9 46% 48 NA 30.26 1024.9
6:53 pm EDT N 12.7 10.00 Partly Cloudy -- 52.0 30.9 45% 48 NA 30.25 1024.6
5:53 pm EDT NW 8.1 10.00 Partly Cloudy -- 56.0 33.1 42% 54 NA 30.24 1024.0
4:53 pm EDT NW 10.4 10.00 A Few Clouds -- 54.0 30.9 42% 51 NA 30.22 1023.7
3:53 pm EDT NW 16.1 G 19.6 10.00 A Few Clouds -- 56.0 32.0 40% 52 NA 30.23 1023.9
2:53 pm EDT 6.9 G 18.4 10.00 Fair -- 55.0 32.0 42% 53 NA 30.24 1024.2
1:53 pm EDT NW 10.4 10.00 Fair -- 56.0 34.0 44% 53 NA 30.25 1024.5
12:53 pm EDT NW 9.2 10.00 Partly Cloudy -- 54.0 35.1 49% 51 NA 30.25 1024.4

Regional Weather Observation


Rickenbacker Air National Guard Base, OH (KLCK)

Fair
57.0 F

Lancaster, Fairfield County Airport, OH (KLHQ)

Fair
58.0 F

Columbus, Bolton Field Airport, OH (KTZR)

Fair
57.0 F

Newark, Newark Heath Airport, OH (KVTA)

Fair
58.0 F

Columbus, Ohio State University Airport, OH (KOSU)

Fair
58.0 F

London Madison County Airport, OH (KUYF)

Fair
55.0 F
Advertise Here

Advertise Here